Hourly Weather Roundup
Issued by NWS Central Illinois

Home | Current Version | Previous Version | Text Only | Print | Product List | Glossary On
Versions: 1 2 3 4 5 6 7 8 9 10 11 12 13 14 15 16 17 18 19 20 21 22 23 24 25 26 27 28 29 30 31 32 33 34 35 36 37 38 39 40 41 42 43 44 45 46 47 48 49 50
000
NZUS43 KILX 261410
HWRILX

AREA WEATHER ROUNDUP
NATIONAL WEATHER SERVICE, LINCOLN IL
800 AM CST WED NOV 26 2014


CITY           SKY/WX    TMP DP  RH WIND       PRES   REMARKS
BLOOMINGTON    PTCLDY    24  22  92 SE14      30.12R WCI  12
CHAMPAIGN      MOSUNNY   22  20  92 E8        30.13S WCI  12
DECATUR        MOSUNNY   25  22  88 SE9       30.12S WCI  15
FLORA          MOSUNNY   25  24  97 E3        30.15S FOG
GALESBURG      MOCLDY    24  23  96 E9G16     30.04F WCI  14
JACKSONVILLE   MOCLDY    31  27  86 SE14      30.06F WCI  21
LACON          MOCLDY    21  18  88 SE6       30.12R WCI  13
LAWRENCEVILLE  MOSUNNY   26  24  92 NE3       30.16S FOG
LITCHFIELD     PTCLDY    26  23  88 SE10      30.09R WCI  16
$$


CITY           SKY/WX    TMP DP  RH WIND       PRES   REMARKS
LINCOLN        PTCLDY    26  24  91 SE5       30.13S WCI  20
MACOMB         MOCLDY    28  26  95 SE10      30.06F WCI  18
MATTOON        MOSUNNY   24  21  88 SE8       30.13S WCI  15
MT CARMEL AP   MOSUNNY   28  27  93 CALM      30.16S FOG
OLNEY-NOBLE AP MOSUNNY   27  23  86 CALM      30.15F FOG
PARIS          CLOUDY    25  24  95 E5        30.15S WCI  19
PEORIA         MOCLDY    26  21  81 SE7       30.10S WCI  18
PONTIAC        CLOUDY    26  23  90 SE13      30.15S WCI  14
RANTOUL        CLOUDY    25  22  91 SE3       30.14S FOG
ROBINSON       PTSUNNY   26  24  95 E3        30.16F
SPRINGFIELD    PTCLDY    28  25  88 SE10      30.09F WCI  19
TAYLORVILLE    CLEAR     27  23  86 SE12      30.10S WCI  16
$$

...REGIONAL REPORTS...


CITY           SKY/WX    TMP DP  RH WIND       PRES   REMARKS
CHICAGO O`HARE CLOUDY    21  17  84 CALM      30.15R
KANKAKEE       CLOUDY   N/A N/A N/A E8        30.17S
MOLINE         CLOUDY    21  18  88 E8        30.06F FOG     WCI  11
MOUNT VERNON   SUNNY     27  21  80 E5        30.13S WCI  21
PITTSFIELD     CLOUDY    31  27  88 SE9       30.03F WCI  22
QUINCY         CLOUDY    29  24  82 SE10      29.99F WCI  20
ROCKFORD       CLOUDY    18  14  84 E9        30.15F FOG     WCI   7
$$


CITY           SKY/WX    TMP DP  RH WIND       PRES   REMARKS
BURLINGTON     CLOUDY    28  24  85 E9        30.01S WCI  19
CEDAR RAPIDS   MOCLDY    23  20  88 E10       30.00S WCI  12
DES MOINES     FRZ DRZL  30  27  88 E8        29.88S FOG     WCI  22
KIRKSVILLE     LGT SNOW  30  28  92 SE9       29.93F FOG     WCI  22
OTTUMWA        CLOUDY    30  21  69 SE10      29.94R WCI  21
ST LOUIS       CLOUDY    31  25  78 SE12      30.06F WCI  22
$$


CITY           SKY/WX    TMP DP  RH WIND       PRES   REMARKS
TERRE HAUTE    CLOUDY    25  21  85 E7        30.15F WCI  17
EVANSVILLE     MOSUNNY   27  24  89 CALM      30.16S FOG
INDIANAPOLIS   CLOUDY    27  20  75 E6        30.13S WCI  20
LAFAYETTE      CLOUDY    24  19  81 E8        30.16S WCI  15
MADISON        CLOUDY    14  13  95 SE3       30.13R FOG
MILWAUKEE      MOCLDY    18  15  88 CALM      30.15F FOG
$$





USA.gov is the U.S. government's official web portal to all federal, state and local government web resources and services.